Date String (YYYY-MM-DD hh:mm:ss) UTC,Instrument flags,absolute air pressure of the measurement (hPa),sample flow rate (lpm),inlet stack bypass flow (lpm),air temperature of the measurement (°C),ambient temperature measured by the external sensor (°C),aerosol sample conditioner tube jacket temperature (°C),OPC LED temperature (°C),internal box temperature (°C),relative humidity of the measurement (%),span deviation,mass concentration of particles derived from Lorenz-Mie calculation of OPC scattering (μg/m³),mass concentration of particles derived from Lorenz-Mie calculation of OPC scattering (μg/m³),mass concentration of particles derived from Lorenz-Mie calculation of OPC scattering (μg/m³)
DateTimeUTC,F1_M11,P_M11,Q1_M11,Q2_M11,T1_M11,T2_M11,T3_M11,T4_M11,T5_M11,U1_M11,ZSPAN_M11,X2_M11,X0_M11,X1_M11
2024-04-16 01:00:00,SystemResetWarning,0816.3,4.99,000.00,025.3,024.3,000.0,033.7,026.9,014.7,0000.0,0000.63,0002.37,0000.27
2024-04-16 01:01:00,SystemResetWarning,0816.4,5.00,000.00,025.3,024.2,000.0,033.7,026.9,014.8,0000.0,0000.62,0002.32,0000.26
2024-04-16 01:02:00,SystemResetWarning,0816.3,5.00,000.00,025.3,024.2,000.0,033.7,026.9,014.8,0000.0,0000.61,0003.86,0000.25
2024-04-16 01:03:00,SystemResetWarning,0816.2,5.00,000.00,025.2,024.2,000.0,033.7,026.9,014.8,0000.0,0000.60,0003.90,0000.24
2024-04-16 01:04:00,SystemResetWarning,0816.3,5.01,000.00,025.2,024.2,000.0,033.7,026.9,014.7,0000.0,0000.60,0003.97,0000.22
2024-04-16 01:05:00,SystemResetWarning,0816.5,5.00,000.00,025.2,024.2,000.0,033.7,026.9,014.7,0000.0,0000.63,0004.30,0000.23
2024-04-16 01:06:00,SystemResetWarning,0816.5,5.01,000.00,025.2,024.2,000.0,033.7,026.9,014.7,0000.0,0000.60,0003.47,0000.21
2024-04-16 01:07:00,SystemResetWarning,0816.5,5.00,000.00,025.2,024.2,000.0,033.7,026.9,014.9,0000.0,0000.60,0003.67,0000.18
2024-04-16 01:08:00,SystemResetWarning,0816.4,5.00,000.00,025.2,024.2,000.0,033.7,026.9,014.9,0000.0,0000.64,0004.97,0000.17
2024-04-16 01:09:00,SystemResetWarning,0816.5,5.00,000.00,025.2,024.1,000.0,033.7,026.8,014.9,0000.0,0000.67,0005.84,0000.17
2024-04-16 01:10:00,SystemResetWarning,0816.7,5.00,000.00,025.1,024.1,000.0,033.6,026.8,014.8,0000.0,0000.75,0006.58,0000.16
2024-04-16 01:11:00,SystemResetWarning,0816.8,4.99,000.00,025.1,024.1,000.0,033.6,026.8,014.9,0000.0,0000.75,0007.31,0000.16
2024-04-16 01:12:00,SystemResetWarning,0816.9,5.00,000.00,025.1,024.1,000.0,033.6,026.8,014.8,0000.0,0000.77,0008.37,0000.15
2024-04-16 01:13:00,SystemResetWarning,0816.9,5.00,000.00,025.1,024.1,000.0,033.6,026.8,014.8,0000.0,0000.80,0008.01,0000.15
2024-04-16 01:14:00,SystemResetWarning,0816.8,5.01,000.00,025.1,024.0,000.0,033.6,026.8,015.2,0000.0,0000.78,0008.00,0000.15
2024-04-16 01:15:00,SystemResetWarning,0816.7,5.00,000.00,025.1,024.0,000.0,033.6,026.7,015.6,0000.0,0000.78,0008.52,0000.15
2024-04-16 01:16:00,SystemResetWarning,0816.8,5.00,000.00,025.1,024.0,000.0,033.6,026.7,016.2,0000.0,0000.81,0009.53,0000.15
2024-04-16 01:17:00,SystemResetWarning,0816.9,5.00,000.00,025.0,024.0,000.0,033.5,026.7,016.5,0000.0,0000.97,0011.09,0000.19
2024-04-16 01:18:00,SystemResetWarning,0817.1,5.00,000.00,025.0,024.0,000.0,033.5,026.7,017.3,0000.0,0001.17,0011.82,0000.28
2024-04-16 01:19:00,SystemResetWarning,0817.1,5.00,000.00,025.0,024.0,000.0,033.5,026.7,017.3,0000.0,0001.35,0011.92,0000.37
2024-04-16 01:20:00,SystemResetWarning,0817.1,5.00,000.00,025.0,024.0,000.0,033.5,026.7,016.0,0000.0,0001.38,0011.92,0000.40
2024-04-16 01:21:00,SystemResetWarning,0817.1,5.00,000.00,025.0,024.0,000.0,033.5,026.7,016.0,0000.0,0001.30,0011.56,0000.41
2024-04-16 01:22:00,SystemResetWarning,0817.0,5.00,000.00,025.0,024.0,000.0,033.5,026.7,016.4,0000.0,0001.30,0011.14,0000.42
2024-04-16 01:23:00,SystemResetWarning,0816.9,5.00,000.00,025.0,023.9,000.0,033.5,026.6,016.6,0000.0,0001.30,0010.36,0000.44
2024-04-16 01:24:00,SystemResetWarning,0816.9,4.99,000.00,024.9,023.9,000.0,033.5,026.6,016.2,0000.0,0001.31,0009.97,0000.46
2024-04-16 01:25:00,SystemResetWarning,0816.9,5.01,000.00,024.9,023.9,000.0,033.5,026.6,015.9,0000.0,0001.39,0010.34,0000.48
2024-04-16 01:26:00,SystemResetWarning,0817.0,5.00,000.00,024.9,023.9,000.0,033.4,026.6,015.6,0000.0,0001.40,0010.02,0000.50
2024-04-16 01:27:00,SystemResetWarning,0817.0,5.00,000.00,024.9,023.8,000.0,033.4,026.6,015.8,0000.0,0001.36,0008.88,0000.49
2024-04-16 01:28:00,SystemResetWarning,0817.0,5.01,000.00,024.9,023.8,000.0,033.4,026.5,015.5,0000.0,0001.25,0007.20,0000.46
2024-04-16 01:29:00,SystemResetWarning,0817.0,5.00,000.00,024.9,023.8,000.0,033.4,026.5,015.2,0000.0,0001.03,0005.69,0000.39
2024-04-16 01:30:00,SystemResetWarning,0817.1,5.00,000.00,024.8,023.8,000.0,033.4,026.5,015.1,0000.0,0000.83,0004.54,0000.30
2024-04-16 01:31:00,SystemResetWarning,0817.1,5.00,000.00,024.8,023.8,000.0,033.4,026.5,015.2,0000.0,0000.76,0003.07,0000.28
2024-04-16 01:32:00,SystemResetWarning,0817.1,5.00,000.00,024.8,023.8,000.0,033.3,026.5,015.3,0000.0,0000.75,0003.18,0000.27
2024-04-16 01:33:00,SystemResetWarning,0817.2,5.00,000.00,024.8,023.8,000.0,033.3,026.5,015.5,0000.0,0000.73,0003.16,0000.27
2024-04-16 01:34:00,SystemResetWarning,0817.1,4.99,000.00,024.8,023.7,000.0,033.3,026.5,015.3,0000.0,0000.77,0003.00,0000.27
2024-04-16 01:35:00,SystemResetWarning,0817.2,5.01,000.00,024.8,023.7,000.0,033.3,026.5,015.2,0000.0,0000.76,0002.96,0000.26
2024-04-16 01:36:00,SystemResetWarning,0817.3,5.01,000.00,024.7,023.7,000.0,033.3,026.5,015.3,0000.0,0000.68,0002.09,0000.25
2024-04-16 01:37:00,SystemResetWarning,0817.3,5.01,000.00,024.7,023.7,000.0,033.3,026.5,015.2,0000.0,0000.63,0001.82,0000.24
2024-04-16 01:38:00,SystemResetWarning,0817.3,4.99,000.00,024.7,023.7,000.0,033.3,026.4,014.9,0000.0,0000.58,0001.69,0000.24
2024-04-16 01:39:00,SystemResetWarning,0817.3,5.00,000.00,024.7,023.7,000.0,033.3,026.4,014.9,0000.0,0000.54,0001.61,0000.23
2024-04-16 01:40:00,SystemResetWarning,0817.4,5.02,000.00,024.7,023.7,000.0,033.2,026.4,014.5,0000.0,0000.54,0002.75,0000.23
2024-04-16 01:41:00,SystemResetWarning,0817.3,5.00,000.00,024.7,023.7,000.0,033.2,026.4,014.6,0000.0,0000.52,0002.72,0000.22
2024-04-16 01:42:00,SystemResetWarning,0817.3,4.99,000.00,024.7,023.7,000.0,033.2,026.4,014.5,0000.0,0000.48,0002.68,0000.21
2024-04-16 01:43:00,SystemResetWarning,0817.3,4.99,000.00,024.7,023.6,000.0,033.2,026.4,014.5,0000.0,0000.46,0002.54,0000.19
2024-04-16 01:44:00,SystemResetWarning,0817.3,5.00,000.00,024.7,023.7,000.0,033.2,026.4,014.4,0000.0,0000.45,0002.42,0000.19
2024-04-16 01:45:00,SystemResetWarning,0817.3,5.01,000.00,024.7,023.7,000.0,033.2,026.4,014.2,0000.0,0000.41,0002.41,0000.17
2024-04-16 01:46:00,SystemResetWarning,0817.3,5.00,000.00,024.6,023.6,000.0,033.2,026.3,014.1,0000.0,0000.38,0002.26,0000.16
2024-04-16 01:47:00,SystemResetWarning,0817.2,5.00,000.00,024.6,023.6,000.0,033.2,026.3,014.0,0000.0,0000.38,0002.28,0000.15
2024-04-16 01:48:00,SystemResetWarning,0817.2,5.00,000.00,024.6,023.6,000.0,033.2,026.3,014.1,0000.0,0000.37,0003.56,0000.13
2024-04-16 01:49:00,SystemResetWarning,0817.3,5.00,000.00,024.6,023.6,000.0,033.1,026.3,014.2,0000.0,0000.37,0003.66,0000.12
2024-04-16 01:50:00,SystemResetWarning,0817.3,5.00,000.00,024.6,023.6,000.0,033.1,026.3,014.3,0000.0,0000.36,0003.65,0000.11
2024-04-16 01:51:00,SystemResetWarning,0817.3,5.00,000.00,024.6,023.6,000.0,033.1,026.3,014.3,0000.0,0000.35,0002.49,0000.10
2024-04-16 01:52:00,SystemResetWarning,0817.3,5.01,000.00,024.6,023.6,000.0,033.1,026.3,014.2,0000.0,0000.34,0002.66,0000.10
2024-04-16 01:53:00,SystemResetWarning,0817.3,5.00,000.00,024.6,023.6,000.0,033.1,026.3,014.2,0000.0,0000.33,0002.63,0000.10
2024-04-16 01:54:00,SystemResetWarning,0817.2,4.98,000.00,024.5,023.6,000.0,033.1,026.3,014.1,0000.0,0000.34,0003.07,0000.10
2024-04-16 01:55:00,SystemResetWarning,0817.3,4.98,000.00,024.5,023.5,000.0,033.1,026.3,013.8,0000.0,0000.33,0003.17,0000.11
2024-04-16 01:56:00,SystemResetWarning,0817.3,5.00,000.00,024.5,023.5,000.0,033.1,026.3,013.9,0000.0,0000.32,0003.45,0000.11
2024-04-16 01:57:00,SystemResetWarning,0817.3,5.01,000.00,024.5,023.5,000.0,033.1,026.3,013.8,0000.0,0000.33,0004.40,0000.11
2024-04-16 01:58:00,SystemResetWarning,0817.3,5.01,000.00,024.5,023.5,000.0,033.1,026.3,013.8,0000.0,0000.31,0004.20,0000.11
2024-04-16 01:59:00,SystemResetWarning,0817.3,4.99,000.00,024.5,023.5,000.0,033.0,026.3,013.9,0000.0,0000.30,0002.99,0000.11
